Skip Navigation Linkswww.weather.gov 
NOAA logo - Click to go to the NOAA homepage National Weather Service Forecast Office   NWS logo - Click to go to the NWS homepage    
San Diego, California
navigation bar decoration      
ESRI-based Geosearch
spacer
RWRSGX

Printer Version    Previous Page   


Current Version                Previous Version:  1  2  3  4  5  

HOURLY WEATHER ROUNDUP

 
 ASUS46 KSGX 170711
RWRSGX

SAN DIEGO HOURLY WEATHER ROUNDUP
NATIONAL WEATHER SERVICE SAN DIEGO CA
1100 PM PST SAT DEC 16 2017

NOTE: "FAIR" INDICATES FEW OR NO CLOUDS BELOW 12,000 FEET WITH NO
SIGNIFICANT WEATHER AND/OR OBSTRUCTIONS TO VISIBILITY.

CAZ042-043-060-061-PZZ750-775-170800-

GREATER SAN DIEGO AREA

CITY SKY/WX TMP DP RH WIND PRES REMARKS
SAN DIEGO AP PTCLDY 57 51 80 N3 29.79R
NATIONAL CITY N/A 56 51 84 CALM 29.80S
CHULA VISTA N/A 53 49 89 CALM 29.70R
IMPERIAL BEACH CLEAR 49 47 93 NE5 29.79R
BROWN FIELD CLEAR 54 51 90 NE5 29.78R
MIRAMAR MCAS PTCLDY 50 46 86 NE5 29.77S
MONTGOMERY FLD CLEAR 58 50 75 NW3 29.78R
GILLESPIE FLD FAIR 50 46 87 CALM 29.78R




NORTH SAN DIEGO COUNTY

CITY SKY/WX TMP DP RH WIND PRES REMARKS
CAMP PENDLETON CLEAR 45 42 89 NE3 29.78S
OCEANSIDE AP NOT AVBL
OCEANSIDE HBR N/A 51 46 83 CALM 29.80R
VISTA N/A 50 46 84 CALM 29.76R
CARLSBAD CLEAR 53 48 83 CALM 29.77R
DEL MAR N/A 54 50 86 CALM 29.80R
LA JOLLA SCRIP N/A 58 54 86 NW3 29.77S
FALLBROOK N/A 55 50 86 SE2 29.79R
ESCONDIDO N/A 51 45 79 CALM 29.79R
SAN MARCOS N/A 52 46 82 CALM 29.80R
POWAY N/A 48 44 85 CALM 29.81R




EAST SAN DIEGO COUNTY

CITY SKY/WX TMP DP RH WIND PRES REMARKS
RAMONA CLOUDY 41 39 93 CALM 29.78R
SANTEE LAKES N/A 49 46 88 CALM 29.77R
LA MESA N/A 53 50 87 CALM 29.71R
JAMUL N/A 49 46 88 CALM 29.79R
MT. LAGUNA OBS N/A 38 23 53 NE24 29.77R WCI 27
CAMPO N/A 48 23 37 E8 29.75R




ORANGE COUNTY AND THE LOS ANGELES BASIN

CITY SKY/WX TMP DP RH WIND PRES REMARKS
JOHN WAYNE AP PTCLDY 56 49 77 CALM 29.79R
LAGUNA BEACH N/A 49 45 85 CALM 29.73R
LAKE FOREST FR N/A 60 26 27 NE21 29.64F
HUNTINGTON BCH N/A 52 50 94 CALM 29.81R
LOS ALAMITOS FAIR 49 45 88 CALM 29.79R
FULLERTON CLEAR 53 48 83 SE3 29.79R
LONG BEACH CLEAR 56 50 80 CALM 29.80R
L.A. AP CLEAR 58 50 75 VRB5 29.80R
L.A. DOWNTOWN CLEAR 54 48 80 CALM 29.79R




THE INLAND EMPIRE

CITY SKY/WX TMP DP RH WIND PRES REMARKS
CORONA PTCLDY 52 43 71 SE7 29.81R
CHINO PTCLDY 49 43 80 SW8 29.81R HAZE
ONTARIO PTCLDY 55 46 71 NW5 29.79R
SAN BERNARDINO FAIR 61 26 26 N12G17 29.81S
RIVERSIDE AP PTCLDY 58 41 53 N8 29.80R
MORENO VALLEY N/A 55 37 50 NE2 27.94R
MARCH ARB CLEAR 50 38 63 N7 29.80R
HORSETHIEF CYN N/A 55 37 49 NE3 29.81R
PERRIS N/A 50 47 90 CALM 29.75R
HEMET EAST N/A 58 -1 9 CALM 30.17S
FRENCH VALLEY FAIR 46 41 81 CALM 29.81R
TEMECULA N/A 49 44 84 N1 29.85R




SAN BERNARDINO AND RIVERSIDE COUNTY MOUNTAINS

CITY SKY/WX TMP DP RH WIND PRES REMARKS
BIG BEAR AP CLOUDY 32 21 64 E10 29.90S WCI 24




SOUTHERN DESERT INCLUDING THE COACHELLA VALLEY

CITY SKY/WX TMP DP RH WIND PRES REMARKS
PALM SPRINGS PTCLDY 65 28 24 NW5 29.82R
THOUSAND PALMS N/A 60 28 29 NE3 29.77R
PALM DESERT N/A 56 35 45 CALM N/A
THERMAL CLOUDY 64 29 26 W10 29.76R
BLYTHE PTCLDY 53 14 21 N14 29.77S
IMPERIAL AP MOCLDY 51 27 39 W5 29.74R
EL CENTRO NAS MOCLDY 50 23 34 NW8 29.77R
YUMA AZ PTCLDY 56 23 27 N12 29.72R
MEXICALI PTCLDY 46 28 49 NW7 29.74S




UPPER DESERT

CITY SKY/WX TMP DP RH WIND PRES REMARKS
HESPERIA N/A 45 23 41 N2 30.02R
APPLE VALLEY N/A 48 22 35 E8 29.93R
PALMDALE PTCLDY 45 18 34 E12 29.95R
LANCASTER PTCLDY 38 23 55 CALM 29.94R
EDWARDS AFB PTCLDY 46 13 26 N12 29.91R
DAGGETT CLOUDY 53 21 28 NE16G23 29.91R
29 PALMS N CLOUDY 55 22 27 NW14G20 29.93R
NEEDLES PTCLDY 56 14 19 N7 29.83R




REGIONAL REPORTS

CITY SKY/WX TMP DP RH WIND PRES REMARKS
SANTA BARBARA CLEAR 47 27 45 W7 29.81R
SANDBERG CLEAR 38 25 59 NE9 29.90S WCI 31
LAS VEGAS NV CLOUDY 54 26 34 N20G29 29.91R
PHOENIX AZ PTCLDY 53 24 32 E7 29.77S
TIJUANA MOCLDY 55 52 88 CALM 29.79R
ENSENADA NW N/A 59 32 36 CALM 29.69R




OFFSHORE ISLANDS

CITY SKY/WX TMP DP RH WIND PRES REMARKS
CATALINA ARPT CLEAR 51 51 100 NW7 29.82R
SAN NICOLAS IS CLEAR 51 49 92 NW9 29.80R




MARINE AND OFFSHORE BUOY REPORTS

STATION/POSITION SKY/WX TEMP WIND PRES VSBY SWELL
AIR SEA DIR/SP/G HT/PER/DIR
(F) (DEG/KT/KT) (MB) (MI) (FT/S/D)
TANNER BANKS 61 62 280/ 6/ 12 1008.2 15/330/12
S CLEMENTE BASIN 62 63 20/ 8/ 10 1008.4R 8/300/12
SAN NICOLAS IS. 61 N/A 13/310/13
SO. S. ROSA ISLA 59 58 340/ 12/ 16 1008.8R 13/300/13
W. S. BARBARA CH 60 58 360/ 12/ 16 1009.7R 11/300/12
M. S. BARBARA CH 60 61 110/ 6/ 10 1010.0R 5/270/15
S. MONICA BASIN 62 320/ 10/ 12 1008.8R 5/260/14
S PEDRO CHANNEL 62 N/A 3/270/13
CMP PENDLETON NS 61 N/A 3/260/11
OCEANSIDE OFFSHR 62 N/A 2/250/11
TORREY PINES OTR 63 N/A 5/280/11
SAN DIEGO BAY 64 1008.8R
POINT LOMA SOUTH 64 N/A 7/280/12







Webmaster
US Dept of Commerce
National Oceanic and Atmospheric Administration
National Weather Service
San Diego Weather Forecast Office
11440 W. Bernardo Court, Suite 230
San Diego, California 92127

Tel: (858) 675-8700

Disclaimer
Information Quality
Credits
Glossary
Organization
Privacy Policy
Freedom of Information Act
About Us
Career Opportunities